Tracking 19559 objects as of 26-Mar-2019
HD Live streaming from Space Station
objects crossing your sky now

COSMOS 2024 (ETALON 2)

Track COSMOS 2024 (ETALON 2) now!
COSMOS 2024 (ETALON 2) is classified as:


NORAD ID: 20026
Int'l Code: 1989-039C
Perigee: 19,083.9 km
Apogee: 19,173.9 km
Inclination: 65.3 °
Period: 675.4 minutes
Semi major axis: 25499 km
RCS: 1.2589 m2 (large)
Launch date: May 31, 1989
Source: Commonwealth of Independent States (former USSR) (CIS)
Launch site: TYURATAM MISSILE AND SPACE COMPLEX (TTMTR)
aabbcc
Your satellite tracking list
Your tracking list is empty




NASA's NSSDC Master Catalog

Two Line Element Set (TLE):
1 20026U 89039C   19084.72623782 -.00000047  00000-0  00000+0 0  9999
2 20026  65.3399  40.4353 0017641 223.1320  66.3989  2.13204373232203
Source of the keplerian elements: AFSPC